contact:dominique.lefevre@mio.osupytheas.fr, maurice.libes@osupytheas.fr, didier.mallarino@osupytheas.fr
Project:EMSO http://www.emso-fr.org/EMSO-France
Depth: 2436.0 m
Title:EMSO Ligure Ouest : Data MII capteur AQUADOPP
Date,Latitude,Longitude,X_East,Y_North,Z_Up,Amplitude_X,Amplitude_Y,Amplitude_Z,Batterie,SoundSpeed,Heading,Pitch,Roll,Pressure,TIS,Speed,Direction
, degrees North, degrees East, m.s-1, m.s-1,m.s-1, 1, 1, 1, Volt, m.s-1, degree, degree, degree, dbar, degree_C, m.s-1, degree
2023-01-14T00:04:02,42.805,6.029,0.018,-0.021,0.0,103.0,102.0,101.0,13.4,1505.2,338.8,-0.8,1.8,2471.306,13.28,0.027,139.4
2023-01-14T00:07:02,42.805,6.029,0.019,-0.036,-0.029,102.0,101.0,102.0,13.4,1505.2,328.5,-0.8,1.8,2471.251,13.28,0.04,152.2
2023-01-14T00:10:03,42.805,6.029,0.027,-0.025,-0.049,103.0,101.0,102.0,13.3,1505.2,315.0,-0.8,1.8,2471.252,13.28,0.036,132.8
2023-01-14T00:13:03,42.805,6.029,0.017,-0.02,-0.032,103.0,101.0,101.0,13.4,1505.2,325.2,-0.8,1.8,2471.225,13.28,0.026,139.6
2023-01-14T00:16:03,42.805,6.029,0.044,-0.035,-0.045,103.0,101.0,101.0,13.4,1505.2,321.0,-0.7,1.8,2471.248,13.28,0.056,128.5
2023-01-14T00:19:03,42.805,6.029,0.035,-0.005,-0.016,103.0,102.0,101.0,13.4,1505.2,323.2,-0.8,1.8,2471.229,13.28,0.035,98.1
2023-01-14T00:22:02,42.805,6.029,0.055,-0.049,0.007,101.0,102.0,101.0,13.4,1505.2,330.9,-0.8,1.8,2471.207,13.28,0.073,131.7
2023-01-14T00:25:03,42.805,6.029,0.027,-0.05,-0.028,103.0,102.0,102.0,13.3,1505.2,327.0,-0.8,1.8,2471.202,13.29,0.056,151.6
2023-01-14T00:28:03,42.805,6.029,0.039,-0.04,-0.019,103.0,101.0,102.0,13.3,1505.2,329.3,-0.8,1.8,2471.205,13.29,0.055,135.7
2023-01-14T00:31:03,42.805,6.029,0.015,-0.026,-0.016,102.0,102.0,102.0,13.3,1505.2,331.2,-0.8,1.8,2471.236,13.29,0.03,150.0
2023-01-14T00:34:03,42.805,6.029,0.045,-0.045,-0.017,101.0,102.0,101.0,13.4,1505.2,318.5,-0.8,1.8,2471.245,13.29,0.063,135.0
2023-01-14T00:37:03,42.805,6.029,0.045,-0.027,-0.008,102.0,100.0,102.0,13.4,1505.2,323.6,-0.8,1.8,2471.225,13.29,0.052,121.0
2023-01-14T00:40:03,42.805,6.029,0.026,-0.028,-0.016,102.0,102.0,102.0,13.4,1505.2,325.8,-0.7,1.9,2471.171,13.29,0.038,137.1
2023-01-14T00:43:03,42.805,6.029,0.038,-0.016,0.021,102.0,102.0,101.0,13.4,1505.2,318.1,-0.7,1.8,2471.213,13.29,0.041,112.8
2023-01-14T00:46:03,42.805,6.029,0.053,-0.024,-0.036,102.0,101.0,101.0,13.4,1505.2,321.8,-0.8,1.8,2471.194,13.29,0.058,114.4
2023-01-14T00:49:03,42.805,6.029,0.014,-0.043,-0.04,102.0,102.0,101.0,13.4,1505.2,335.5,-0.8,1.9,2471.189,13.29,0.045,162.0
2023-01-14T00:52:03,42.805,6.029,0.037,-0.043,-0.026,102.0,102.0,101.0,13.4,1505.2,328.0,-0.8,1.8,2471.199,13.29,0.056,139.3
2023-01-14T00:55:03,42.805,6.029,0.04,-0.046,-0.012,102.0,101.0,101.0,13.4,1505.2,322.4,-0.7,1.8,2471.214,13.29,0.06,139.0
2023-01-14T00:58:03,42.805,6.029,0.001,-0.029,-0.037,102.0,102.0,101.0,13.4,1505.2,328.8,-0.8,1.8,2471.209,13.29,0.029,178.0
2023-01-14T01:04:03,42.805,6.029,0.004,-0.008,0.017,104.0,102.0,103.0,13.4,1505.2,323.2,-0.8,1.8,2471.259,13.28,0.008,153.4
2023-01-14T01:07:03,42.805,6.029,-0.003,-0.022,-0.026,103.0,103.0,102.0,13.4,1505.2,328.1,-0.7,1.8,2471.241,13.28,0.022,187.8
2023-01-14T01:10:02,42.805,6.029,0.043,-0.034,0.002,102.0,102.0,102.0,13.4,1505.2,335.9,-0.8,1.8,2471.246,13.28,0.054,128.3
2023-01-14T01:13:03,42.805,6.029,0.02,-0.033,-0.001,103.0,101.0,101.0,13.4,1505.2,320.6,-0.8,1.8,2471.217,13.28,0.038,148.8
2023-01-14T01:16:03,42.805,6.029,0.04,-0.03,-0.018,103.0,102.0,100.0,13.4,1505.2,327.8,-0.7,1.8,2471.226,13.28,0.05,126.9
2023-01-14T01:19:03,42.805,6.029,0.03,-0.014,-0.003,102.0,102.0,101.0,13.3,1505.2,328.3,-0.7,1.8,2471.206,13.28,0.033,115.0
2023-01-14T01:22:03,42.805,6.029,0.051,-0.014,-0.012,101.0,103.0,101.0,13.4,1505.2,321.4,-0.8,1.8,2471.209,13.29,0.052,105.3
2023-01-14T01:25:03,42.805,6.029,0.023,-0.016,-0.025,101.0,103.0,101.0,13.4,1505.2,327.0,-0.7,1.8,2471.174,13.29,0.028,124.8
2023-01-14T01:28:03,42.805,6.029,0.026,-0.022,0.034,103.0,100.0,101.0,13.4,1505.2,333.8,-0.8,1.8,2471.19,13.29,0.034,130.2
2023-01-14T01:31:03,42.805,6.029,0.039,-0.016,-0.006,103.0,102.0,100.0,13.3,1505.2,324.0,-0.8,1.8,2471.218,13.29,0.042,112.3
2023-01-14T01:34:03,42.805,6.029,0.025,-0.045,-0.023,103.0,103.0,100.0,13.4,1505.2,331.3,-0.8,1.8,2471.206,13.29,0.051,150.9
2023-01-14T01:37:03,42.805,6.029,0.053,-0.011,-0.018,102.0,102.0,102.0,13.4,1505.2,325.6,-0.8,1.8,2471.18,13.29,0.054,101.7
2023-01-14T01:40:03,42.805,6.029,0.035,-0.015,0.005,101.0,103.0,101.0,13.4,1505.2,335.0,-0.8,1.8,2471.226,13.29,0.038,113.2
2023-01-14T01:43:03,42.805,6.029,0.038,-0.027,-0.024,104.0,101.0,101.0,13.4,1505.2,332.3,-0.8,1.8,2471.128,13.29,0.046,125.4
2023-01-14T01:46:03,42.805,6.029,0.043,-0.038,-0.03,101.0,103.0,102.0,13.3,1505.2,319.0,-0.8,1.8,2471.22,13.29,0.057,131.5
2023-01-14T01:49:03,42.805,6.029,0.029,-0.017,-0.01,102.0,102.0,102.0,13.3,1505.2,322.0,-0.8,1.8,2471.188,13.29,0.033,120.4
2023-01-14T01:52:03,42.805,6.029,0.034,-0.045,0.002,102.0,102.0,102.0,13.3,1505.2,336.5,-0.8,1.8,2471.167,13.29,0.056,142.9
2023-01-14T01:55:03,42.805,6.029,0.028,-0.04,-0.005,102.0,102.0,102.0,13.3,1505.2,330.6,-0.8,1.8,2471.167,13.29,0.048,145.0
2023-01-14T01:58:03,42.805,6.029,0.036,-0.043,-0.043,103.0,102.0,102.0,13.4,1505.2,332.6,-0.7,1.8,2471.217,13.29,0.056,140.1
2023-01-14T02:04:03,42.805,6.029,0.058,-0.042,-0.015,102.0,102.0,102.0,13.3,1505.2,331.5,-0.8,1.8,2471.236,13.28,0.071,125.9
2023-01-14T02:07:03,42.805,6.029,0.021,-0.041,-0.008,103.0,103.0,102.0,13.4,1505.2,331.7,-0.7,1.8,2471.2,13.28,0.046,152.9
2023-01-14T02:10:03,42.805,6.029,0.05,-0.028,-0.017,102.0,102.0,103.0,13.4,1505.2,327.3,-0.8,1.8,2471.219,13.28,0.057,119.3
2023-01-14T02:13:03,42.805,6.029,0.022,-0.032,-0.003,104.0,103.0,102.0,13.4,1505.2,324.8,-0.8,1.8,2471.215,13.28,0.038,145.5
2023-01-14T02:16:03,42.805,6.029,0.05,-0.01,0.032,102.0,101.0,103.0,13.3,1505.2,323.2,-0.7,1.8,2471.182,13.28,0.05,101.3
2023-01-14T02:19:03,42.805,6.029,0.042,-0.017,-0.007,102.0,102.0,102.0,13.4,1505.2,319.4,-0.8,1.8,2471.183,13.28,0.045,112.0
2023-01-14T02:22:03,42.805,6.029,0.003,-0.016,-0.009,102.0,102.0,101.0,13.3,1505.2,322.4,-0.8,1.8,2471.182,13.29,0.016,169.4
2023-01-14T02:25:03,42.805,6.029,0.012,-0.031,-0.024,103.0,102.0,102.0,13.4,1505.2,335.4,-0.8,1.8,2471.169,13.29,0.033,158.8
2023-01-14T02:28:03,42.805,6.029,0.039,-0.042,-0.024,101.0,103.0,102.0,13.4,1505.2,330.6,-0.7,1.8,2471.182,13.29,0.057,137.1
2023-01-14T02:31:03,42.805,6.029,0.036,-0.018,-0.007,103.0,102.0,102.0,13.4,1505.2,324.2,-0.8,1.8,2471.197,13.29,0.04,116.6
2023-01-14T02:34:03,42.805,6.029,0.042,-0.04,-0.03,103.0,102.0,102.0,13.3,1505.2,334.9,-0.7,1.8,2471.199,13.29,0.057,133.6
2023-01-14T02:37:03,42.805,6.029,0.046,-0.007,-0.009,102.0,102.0,102.0,13.4,1505.2,318.0,-0.8,1.8,2471.17,13.29,0.046,98.7
2023-01-14T02:40:03,42.805,6.029,0.059,-0.043,-0.003,104.0,102.0,102.0,13.3,1505.2,323.2,-0.8,1.8,2471.168,13.29,0.073,126.1
2023-01-14T02:43:03,42.805,6.029,0.047,-0.034,0.005,104.0,103.0,102.0,13.3,1505.2,328.7,-0.8,1.8,2471.172,13.29,0.058,125.9
2023-01-14T02:46:03,42.805,6.029,0.029,-0.014,0.0,103.0,102.0,102.0,13.3,1505.2,327.5,-0.8,1.8,2471.18,13.29,0.032,115.8
2023-01-14T02:49:03,42.805,6.029,0.038,-0.026,-0.025,102.0,102.0,102.0,13.4,1505.2,316.5,-0.7,1.8,2471.164,13.29,0.046,124.4
2023-01-14T02:52:03,42.805,6.029,0.031,-0.038,-0.01,105.0,102.0,101.0,13.4,1505.2,336.2,-0.8,1.8,2471.171,13.29,0.049,140.8
2023-01-14T02:55:03,42.805,6.029,0.018,-0.047,0.001,102.0,104.0,101.0,13.4,1505.2,329.4,-0.8,1.8,2471.196,13.29,0.05,159.0
2023-01-14T02:58:03,42.805,6.029,0.027,-0.027,-0.016,103.0,103.0,103.0,13.4,1505.2,332.7,-0.7,1.8,2471.165,13.29,0.038,135.0
2023-01-14T03:04:03,42.805,6.029,0.033,-0.035,-0.035,104.0,101.0,103.0,13.3,1505.2,328.5,-0.8,1.8,2471.193,13.28,0.048,136.7
2023-01-14T03:07:03,42.805,6.029,0.035,-0.007,-0.014,103.0,102.0,103.0,13.4,1505.2,319.6,-0.8,1.8,2471.171,13.28,0.035,101.3
2023-01-14T03:10:03,42.805,6.029,0.046,-0.046,-0.046,103.0,103.0,102.0,13.4,1505.2,318.6,-0.8,1.8,2471.205,13.28,0.065,135.0
2023-01-14T03:13:03,42.805,6.029,0.02,-0.022,-0.05,103.0,102.0,102.0,13.4,1505.2,321.7,-0.8,1.8,2471.166,13.28,0.029,137.7
2023-01-14T03:16:03,42.805,6.029,0.053,-0.03,-0.021,104.0,102.0,102.0,13.4,1505.2,316.0,-0.8,1.8,2471.183,13.28,0.06,119.5
2023-01-14T03:19:03,42.805,6.029,0.037,-0.023,0.005,104.0,101.0,103.0,13.4,1505.2,326.7,-0.8,1.8,2471.168,13.28,0.043,121.9
2023-01-14T03:22:03,42.805,6.029,0.037,-0.05,-0.002,104.0,102.0,102.0,13.4,1505.2,332.1,-0.7,1.8,2471.164,13.29,0.062,143.5
2023-01-14T03:25:03,42.805,6.029,0.059,-0.051,-0.044,103.0,102.0,103.0,13.3,1505.2,323.2,-0.8,1.8,2471.171,13.29,0.077,130.8
2023-01-14T03:28:03,42.805,6.029,0.076,-0.035,-0.037,104.0,103.0,103.0,13.3,1505.2,318.0,-0.8,1.8,2471.149,13.28,0.083,114.7
2023-01-14T03:31:03,42.805,6.029,0.036,-0.042,-0.015,104.0,103.0,102.0,13.4,1505.2,326.5,-0.8,1.9,2471.143,13.29,0.055,139.4
2023-01-14T03:34:03,42.805,6.029,0.018,-0.038,-0.026,104.0,102.0,103.0,13.3,1505.2,326.0,-0.7,1.8,2471.188,13.29,0.042,154.7
2023-01-14T03:37:03,42.805,6.029,0.002,-0.011,0.008,103.0,103.0,102.0,13.4,1505.2,325.0,-0.7,1.8,2471.137,13.29,0.011,169.7
2023-01-14T03:40:03,42.805,6.029,0.029,-0.01,-0.003,103.0,103.0,103.0,13.4,1505.2,317.5,-0.7,1.8,2471.163,13.29,0.03,109.0
2023-01-14T03:43:03,42.805,6.029,0.047,-0.029,-0.001,104.0,104.0,101.0,13.3,1505.2,323.8,-0.7,1.8,2471.166,13.29,0.055,121.7
2023-01-14T03:46:03,42.805,6.029,0.043,-0.038,-0.009,105.0,103.0,101.0,13.4,1505.2,322.6,-0.8,1.8,2471.134,13.29,0.057,131.5
2023-01-14T03:49:03,42.805,6.029,0.024,-0.046,-0.018,104.0,103.0,102.0,13.3,1505.2,328.4,-0.7,1.8,2471.152,13.29,0.051,152.4
2023-01-14T03:52:03,42.805,6.029,0.029,-0.031,0.017,103.0,103.0,103.0,13.4,1505.2,324.5,-0.8,1.8,2471.124,13.29,0.042,136.9
2023-01-14T03:55:03,42.805,6.029,0.051,-0.03,-0.032,103.0,103.0,103.0,13.4,1505.2,317.5,-0.8,1.8,2471.114,13.29,0.059,120.5
2023-01-14T03:58:03,42.805,6.029,0.046,-0.034,0.04,104.0,103.0,102.0,13.4,1505.2,332.3,-0.8,1.8,2471.14,13.29,0.057,126.5
2023-01-14T04:04:03,42.805,6.029,0.04,-0.028,-0.027,104.0,103.0,102.0,13.4,1505.2,330.5,-0.8,1.8,2471.2,13.28,0.048,125.0
2023-01-14T04:07:03,42.805,6.029,0.042,-0.046,-0.027,103.0,103.0,102.0,13.4,1505.2,332.6,-0.8,1.8,2471.193,13.28,0.062,137.6
2023-01-14T04:10:03,42.805,6.029,0.018,-0.026,0.003,103.0,103.0,102.0,13.4,1505.2,331.9,-0.7,1.8,2471.212,13.28,0.031,145.3
2023-01-14T04:13:03,42.805,6.029,0.042,-0.052,-0.032,103.0,103.0,102.0,13.4,1505.2,324.8,-0.8,1.8,2471.151,13.28,0.066,141.1
2023-01-14T04:16:03,42.805,6.029,0.065,-0.043,0.007,103.0,103.0,102.0,13.4,1505.2,322.6,-0.8,1.8,2471.17,13.29,0.077,123.5
2023-01-14T04:19:03,42.805,6.029,0.026,-0.04,-0.017,104.0,103.0,102.0,13.4,1505.2,330.2,-0.8,1.8,2471.105,13.28,0.047,147.0
2023-01-14T04:22:03,42.805,6.029,0.023,-0.037,-0.012,102.0,104.0,101.0,13.4,1505.2,339.3,-0.8,1.8,2471.126,13.29,0.043,148.1
2023-01-14T04:25:03,42.805,6.029,0.033,-0.038,-0.023,105.0,101.0,102.0,13.4,1505.2,328.3,-0.7,1.8,2471.117,13.29,0.05,139.0
2023-01-14T04:28:03,42.805,6.029,0.043,-0.024,0.001,103.0,103.0,102.0,13.4,1505.2,325.2,-0.7,1.9,2471.136,13.29,0.049,119.2
2023-01-14T04:31:03,42.805,6.029,0.049,-0.033,-0.015,104.0,104.0,101.0,13.3,1505.2,326.0,-0.7,1.8,2471.134,13.29,0.059,124.0
2023-01-14T04:34:03,42.805,6.029,0.031,-0.033,0.011,103.0,103.0,103.0,13.3,1505.2,337.2,-0.8,1.8,2471.168,13.29,0.045,136.8
2023-01-14T04:37:03,42.805,6.029,0.033,-0.046,-0.029,104.0,103.0,103.0,13.4,1505.2,334.1,-0.7,1.8,2471.146,13.29,0.056,144.3
2023-01-14T04:40:03,42.805,6.029,0.034,-0.018,0.002,105.0,102.0,103.0,13.3,1505.2,325.1,-0.8,1.8,2471.117,13.29,0.038,117.9
2023-01-14T04:43:03,42.805,6.029,0.05,-0.034,-0.027,104.0,103.0,103.0,13.4,1505.2,321.1,-0.7,1.8,2471.156,13.29,0.06,124.2
2023-01-14T04:46:03,42.805,6.029,0.033,-0.048,-0.001,104.0,103.0,102.0,13.4,1505.2,338.5,-0.7,1.8,2471.154,13.29,0.058,145.5
2023-01-14T04:49:03,42.805,6.029,0.039,-0.044,-0.022,104.0,105.0,103.0,13.4,1505.2,331.4,-0.8,1.8,2471.118,13.29,0.058,138.4
2023-01-14T04:52:03,42.805,6.029,0.04,-0.053,-0.032,103.0,104.0,103.0,13.4,1505.2,327.9,-0.8,1.8,2471.156,13.29,0.066,143.0
2023-01-14T04:55:03,42.805,6.029,0.038,-0.021,-0.005,104.0,103.0,103.0,13.4,1505.2,324.6,-0.8,1.8,2471.116,13.29,0.043,118.9
2023-01-14T04:58:03,42.805,6.029,0.046,-0.035,0.006,103.0,103.0,103.0,13.4,1505.2,329.1,-0.8,1.8,2471.132,13.29,0.057,127.3
2023-01-14T05:04:03,42.805,6.029,0.035,-0.042,-0.014,105.0,104.0,101.0,13.4,1505.2,328.3,-0.8,1.8,2471.174,13.28,0.054,140.2
2023-01-14T05:07:03,42.805,6.029,0.031,-0.035,-0.019,105.0,102.0,102.0,13.3,1505.2,330.8,-0.8,1.8,2471.17,13.28,0.046,138.5
2023-01-14T05:10:03,42.805,6.029,0.048,-0.01,-0.003,103.0,104.0,103.0,13.4,1505.2,316.5,-0.8,1.8,2471.18,13.28,0.049,101.8
2023-01-14T05:13:03,42.805,6.029,0.018,-0.017,-0.009,104.0,103.0,102.0,13.4,1505.2,318.0,-0.8,1.8,2471.113,13.28,0.024,133.4
2023-01-14T05:16:03,42.805,6.029,0.054,-0.029,-0.007,104.0,103.0,103.0,13.3,1505.2,332.3,-0.8,1.8,2471.132,13.28,0.061,118.2
2023-01-14T05:19:03,42.805,6.029,0.007,-0.025,-0.013,104.0,102.0,103.0,13.4,1505.2,331.4,-0.7,1.8,2471.144,13.28,0.025,164.4
2023-01-14T05:22:03,42.805,6.029,0.016,-0.035,-0.011,103.0,103.0,104.0,13.4,1505.2,333.8,-0.8,1.8,2471.123,13.29,0.038,155.4
2023-01-14T05:25:03,42.805,6.029,0.064,-0.042,-0.013,102.0,104.0,102.0,13.3,1505.2,319.5,-0.8,1.8,2471.14,13.29,0.076,123.3
2023-01-14T05:28:03,42.805,6.029,0.03,-0.034,-0.044,103.0,104.0,102.0,13.3,1505.2,330.0,-0.7,1.8,2471.088,13.29,0.045,138.6
2023-01-14T05:31:03,42.805,6.029,0.007,-0.019,0.003,103.0,103.0,103.0,13.3,1505.2,327.8,-0.8,1.8,2471.12,13.29,0.02,159.8
2023-01-14T05:34:03,42.805,6.029,0.032,-0.039,-0.021,104.0,103.0,103.0,13.4,1505.2,317.5,-0.8,1.9,2471.125,13.29,0.05,140.6
2023-01-14T05:37:03,42.805,6.029,0.034,-0.029,-0.035,104.0,103.0,102.0,13.4,1505.2,330.2,-0.8,1.8,2471.138,13.29,0.044,130.5
2023-01-14T05:40:03,42.805,6.029,0.038,-0.029,-0.006,103.0,104.0,103.0,13.4,1505.2,329.6,-0.8,1.8,2471.13,13.29,0.047,127.3
2023-01-14T05:43:03,42.805,6.029,0.043,-0.035,-0.018,103.0,103.0,102.0,13.4,1505.2,318.2,-0.8,1.8,2471.153,13.29,0.055,129.1
2023-01-14T05:46:03,42.805,6.029,0.035,-0.046,-0.015,104.0,102.0,102.0,13.4,1505.2,322.1,-0.7,1.8,2471.143,13.29,0.057,142.7
2023-01-14T05:49:03,42.805,6.029,0.059,-0.033,-0.007,104.0,103.0,101.0,13.4,1505.2,324.8,-0.8,1.8,2471.143,13.29,0.067,119.2
2023-01-14T05:52:03,42.805,6.029,0.052,-0.035,-0.001,103.0,103.0,102.0,13.4,1505.2,317.2,-0.8,1.8,2471.116,13.29,0.062,123.9
2023-01-14T05:55:03,42.805,6.029,0.047,-0.019,-0.019,104.0,102.0,102.0,13.4,1505.2,321.9,-0.8,1.8,2471.127,13.29,0.05,112.0
2023-01-14T05:58:03,42.805,6.029,0.033,-0.052,0.0,103.0,103.0,102.0,13.3,1505.2,325.0,-0.8,1.8,2471.144,13.29,0.061,147.6
2023-01-14T06:04:03,42.805,6.029,0.03,-0.033,-0.027,103.0,103.0,102.0,13.3,1505.2,332.0,-0.8,1.8,2471.137,13.28,0.044,137.7
2023-01-14T06:07:03,42.805,6.029,0.039,-0.027,-0.012,104.0,102.0,103.0,13.4,1505.2,322.0,-0.8,1.8,2471.197,13.28,0.047,124.7
2023-01-14T06:10:03,42.805,6.029,0.046,-0.009,0.008,103.0,104.0,101.0,13.3,1505.2,318.6,-0.8,1.8,2471.147,13.28,0.046,101.1
2023-01-14T06:13:03,42.805,6.029,0.049,-0.037,-0.016,102.0,102.0,102.0,13.3,1505.2,326.3,-0.7,1.8,2471.155,13.28,0.061,127.1
2023-01-14T06:16:03,42.805,6.029,0.034,-0.029,0.002,104.0,102.0,102.0,13.3,1505.2,333.0,-0.8,1.8,2471.162,13.28,0.044,130.5
2023-01-14T06:19:03,42.805,6.029,0.046,-0.045,-0.037,103.0,103.0,101.0,13.4,1505.2,325.5,-0.8,1.8,2471.19,13.29,0.064,134.4
2023-01-14T06:22:03,42.805,6.029,0.028,-0.054,-0.018,103.0,102.0,103.0,13.3,1505.2,326.5,-0.7,1.8,2471.177,13.29,0.06,152.6
2023-01-14T06:25:03,42.805,6.029,0.043,-0.019,0.014,102.0,103.0,101.0,13.3,1505.2,324.6,-0.8,1.8,2471.193,13.29,0.047,113.8
2023-01-14T06:28:03,42.805,6.029,0.029,0.0,0.001,104.0,103.0,101.0,13.4,1505.2,318.5,-0.8,1.8,2471.124,13.29,0.028,90.0
2023-01-14T06:31:03,42.805,6.029,0.032,-0.022,-0.001,104.0,102.0,101.0,13.4,1505.2,336.3,-0.8,1.8,2471.148,13.29,0.038,124.5
2023-01-14T06:34:03,42.805,6.029,0.031,-0.038,-0.017,102.0,103.0,102.0,13.3,1505.2,333.0,-0.8,1.8,2471.159,13.29,0.049,140.8
2023-01-14T06:37:03,42.805,6.029,0.042,-0.028,0.013,103.0,104.0,102.0,13.3,1505.2,320.4,-0.8,1.8,2471.13,13.29,0.05,123.7
2023-01-14T06:40:03,42.805,6.029,0.013,-0.026,-0.017,104.0,103.0,101.0,13.4,1505.2,330.2,-0.8,1.8,2471.114,13.29,0.029,153.4
2023-01-14T06:43:03,42.805,6.029,0.043,-0.027,-0.005,105.0,102.0,102.0,13.4,1505.2,333.4,-0.7,1.8,2471.125,13.29,0.05,122.1
2023-01-14T06:46:03,42.805,6.029,0.05,-0.037,-0.016,103.0,103.0,102.0,13.4,1505.2,324.6,-0.8,1.8,2471.149,13.29,0.062,126.5
2023-01-14T06:49:03,42.805,6.029,0.048,-0.049,0.011,104.0,103.0,102.0,13.4,1505.2,327.5,-0.8,1.8,2471.161,13.29,0.068,135.6
2023-01-14T06:52:03,42.805,6.029,0.044,-0.037,-0.006,104.0,103.0,102.0,13.4,1505.2,337.3,-0.8,1.8,2471.157,13.29,0.057,130.1
2023-01-14T06:55:03,42.805,6.029,0.032,-0.063,0.0,103.0,102.0,101.0,13.4,1505.2,331.6,-0.8,1.8,2471.129,13.29,0.07,153.1
2023-01-14T06:58:03,42.805,6.029,0.041,-0.055,-0.02,103.0,102.0,102.0,13.4,1505.2,334.1,-0.8,1.8,2471.142,13.29,0.068,143.3
2023-01-14T07:04:03,42.805,6.029,0.054,-0.042,-0.01,103.0,103.0,102.0,13.3,1505.2,320.4,-0.7,1.8,2471.171,13.28,0.068,127.9
2023-01-14T07:07:03,42.805,6.029,0.068,-0.043,-0.026,102.0,102.0,102.0,13.4,1505.2,323.9,-0.8,1.8,2471.212,13.28,0.08,122.3
2023-01-14T07:10:03,42.805,6.029,0.043,-0.034,-0.009,103.0,103.0,103.0,13.4,1505.2,318.0,-0.8,1.8,2471.192,13.28,0.054,128.3
2023-01-14T07:13:03,42.805,6.029,0.024,-0.027,-0.031,104.0,104.0,102.0,13.4,1505.2,330.9,-0.8,1.8,2471.236,13.28,0.036,138.4
2023-01-14T07:16:03,42.805,6.029,0.012,-0.039,-0.012,102.0,103.0,102.0,13.4,1505.2,327.4,-0.7,1.8,2471.183,13.28,0.04,162.9
2023-01-14T07:19:03,42.805,6.029,0.022,-0.058,-0.038,103.0,103.0,102.0,13.4,1505.2,328.5,-0.7,1.8,2471.202,13.29,0.062,159.2
2023-01-14T07:22:03,42.805,6.029,0.038,-0.032,-0.004,101.0,103.0,102.0,13.4,1505.2,326.3,-0.7,1.8,2471.161,13.29,0.049,130.1
2023-01-14T07:25:03,42.805,6.029,0.041,-0.017,-0.009,103.0,102.0,102.0,13.4,1505.2,330.7,-0.7,1.8,2471.129,13.29,0.044,112.5
2023-01-14T07:28:03,42.805,6.029,0.043,-0.031,-0.018,103.0,103.0,102.0,13.4,1505.2,328.4,-0.7,1.8,2471.188,13.29,0.053,125.8
2023-01-14T07:31:03,42.805,6.029,0.041,-0.026,0.004,104.0,103.0,102.0,13.4,1505.2,327.0,-0.7,1.8,2471.14,13.29,0.048,122.4
2023-01-14T07:34:03,42.805,6.029,0.036,-0.042,-0.021,103.0,103.0,101.0,13.3,1505.2,331.8,-0.7,1.8,2471.185,13.29,0.055,139.4
2023-01-14T07:37:03,42.805,6.029,0.061,-0.045,-0.022,103.0,102.0,101.0,13.3,1505.2,320.9,-0.8,1.8,2471.188,13.29,0.075,126.4
2023-01-14T07:40:03,42.805,6.029,0.034,-0.026,-0.003,103.0,104.0,101.0,13.4,1505.2,324.7,-0.8,1.8,2471.168,13.29,0.042,127.4
2023-01-14T07:43:03,42.805,6.029,0.04,-0.026,0.01,103.0,103.0,103.0,13.4,1505.2,326.3,-0.8,1.8,2471.139,13.29,0.047,123.0
2023-01-14T07:46:03,42.805,6.029,0.013,-0.045,-0.041,104.0,102.0,103.0,13.3,1505.2,327.8,-0.7,1.8,2471.149,13.29,0.046,163.9
2023-01-14T07:49:03,42.805,6.029,0.028,-0.024,-0.022,103.0,103.0,102.0,13.3,1505.2,338.2,-0.8,1.8,2471.169,13.29,0.036,130.6
2023-01-14T07:52:03,42.805,6.029,0.01,-0.022,-0.002,103.0,103.0,102.0,13.4,1505.2,332.6,-0.8,1.8,2471.161,13.29,0.024,155.6
2023-01-14T07:55:03,42.805,6.029,0.042,-0.036,0.004,104.0,102.0,102.0,13.3,1505.2,324.9,-0.8,1.8,2471.161,13.29,0.055,130.6
2023-01-14T07:58:03,42.805,6.029,0.044,-0.02,-0.043,103.0,102.0,103.0,13.4,1505.2,320.5,-0.8,1.8,2471.191,13.29,0.048,114.4
2023-01-14T08:04:03,42.805,6.029,0.042,-0.053,-0.004,103.0,103.0,102.0,13.4,1505.2,337.2,-0.7,1.8,2471.229,13.28,0.067,141.6
2023-01-14T08:07:03,42.805,6.029,0.036,-0.036,-0.011,103.0,101.0,102.0,13.3,1505.2,339.0,-0.8,1.8,2471.211,13.28,0.05,135.0
2023-01-14T08:10:03,42.805,6.029,0.021,-0.017,-0.011,105.0,103.0,103.0,13.4,1505.2,329.0,-0.7,1.8,2471.206,13.28,0.027,129.0
2023-01-14T08:13:03,42.805,6.029,0.039,-0.045,-0.035,103.0,104.0,102.0,13.4,1505.2,332.4,-0.8,1.8,2471.221,13.28,0.059,139.1
2023-01-14T08:16:03,42.805,6.029,0.045,-0.036,-0.01,104.0,104.0,102.0,13.4,1505.2,324.8,-0.8,1.8,2471.177,13.28,0.057,128.7
2023-01-14T08:19:03,42.805,6.029,0.023,-0.035,0.008,103.0,104.0,101.0,13.4,1505.2,329.1,-0.8,1.8,2471.208,13.29,0.041,146.7
2023-01-14T08:22:03,42.805,6.029,0.026,-0.019,-0.002,104.0,102.0,103.0,13.4,1505.2,330.6,-0.8,1.8,2471.18,13.29,0.032,126.2
2023-01-14T08:25:03,42.805,6.029,0.042,-0.036,-0.016,103.0,103.0,103.0,13.3,1505.2,332.2,-0.8,1.8,2471.191,13.29,0.055,130.6
2023-01-14T08:28:03,42.805,6.029,0.036,-0.036,0.024,102.0,103.0,103.0,13.4,1505.2,332.2,-0.7,1.8,2471.183,13.29,0.05,135.0
2023-01-14T08:31:03,42.805,6.029,0.046,-0.045,-0.043,104.0,103.0,103.0,13.4,1505.2,317.0,-0.8,1.8,2471.202,13.29,0.064,134.4
2023-01-14T08:34:03,42.805,6.029,0.033,-0.044,-0.02,103.0,103.0,102.0,13.4,1505.2,337.1,-0.7,1.9,2471.212,13.29,0.055,143.1
2023-01-14T08:37:03,42.805,6.029,0.052,-0.026,0.0,104.0,103.0,103.0,13.4,1505.2,322.9,-0.7,1.8,2471.198,13.29,0.058,116.6
2023-01-14T08:40:03,42.805,6.029,0.036,-0.031,-0.025,104.0,103.0,102.0,13.4,1505.2,317.0,-0.8,1.9,2471.223,13.29,0.047,130.7
2023-01-14T08:43:03,42.805,6.029,0.04,-0.035,-0.021,103.0,103.0,103.0,13.4,1505.2,322.1,-0.8,1.8,2471.194,13.29,0.053,131.2
2023-01-14T08:46:03,42.805,6.029,0.052,-0.058,-0.026,102.0,103.0,103.0,13.3,1505.2,319.2,-0.7,1.8,2471.187,13.29,0.077,138.1
2023-01-14T08:49:03,42.805,6.029,0.038,-0.041,-0.006,103.0,102.0,102.0,13.4,1505.2,326.3,-0.7,1.8,2471.182,13.29,0.055,137.2
2023-01-14T08:52:03,42.805,6.029,0.045,-0.029,0.002,103.0,103.0,103.0,13.3,1505.2,317.5,-0.7,1.8,2471.205,13.29,0.053,122.8
2023-01-14T08:55:03,42.805,6.029,0.056,-0.032,-0.033,103.0,103.0,103.0,13.4,1505.2,321.0,-0.8,1.8,2471.187,13.29,0.064,119.7
2023-01-14T08:58:03,42.805,6.029,0.046,-0.024,0.008,104.0,102.0,103.0,13.4,1505.2,318.1,-0.8,1.8,2471.178,13.29,0.051,117.6
2023-01-14T09:04:03,42.805,6.029,0.033,-0.033,-0.004,103.0,103.0,102.0,13.3,1505.2,323.5,-0.8,1.9,2471.266,13.28,0.046,135.0
2023-01-14T09:07:03,42.805,6.029,0.038,-0.044,-0.033,103.0,103.0,103.0,13.4,1505.2,326.3,-0.8,1.8,2471.268,13.28,0.058,139.2
2023-01-14T09:10:03,42.805,6.029,0.062,-0.027,-0.032,103.0,103.0,103.0,13.3,1505.2,324.3,-0.8,1.8,2471.269,13.28,0.067,113.5
2023-01-14T09:13:03,42.805,6.029,0.035,-0.054,0.0,103.0,102.0,102.0,13.4,1505.2,328.3,-0.7,1.8,2471.264,13.28,0.064,147.0
2023-01-14T09:16:03,42.805,6.029,0.032,-0.038,0.005,103.0,103.0,102.0,13.4,1505.2,325.9,-0.8,1.8,2471.255,13.28,0.049,139.9
2023-01-14T09:19:03,42.805,6.029,0.028,-0.023,-0.011,104.0,103.0,103.0,13.4,1505.2,321.5,-0.8,1.8,2471.264,13.28,0.036,129.4
2023-01-14T09:22:03,42.805,6.029,0.04,-0.038,-0.033,103.0,103.0,102.0,13.3,1505.2,318.1,-0.8,1.8,2471.268,13.29,0.055,133.5
2023-01-14T09:25:03,42.805,6.029,0.038,-0.017,-0.03,103.0,103.0,102.0,13.4,1505.2,324.5,-0.8,1.8,2471.224,13.29,0.041,114.1
2023-01-14T09:28:03,42.805,6.029,0.064,-0.032,-0.01,104.0,102.0,103.0,13.3,1505.2,325.9,-0.7,1.8,2471.23,13.29,0.071,116.6
2023-01-14T09:31:03,42.805,6.029,0.033,-0.045,-0.023,103.0,102.0,102.0,13.4,1505.2,329.8,-0.8,1.9,2471.24,13.29,0.055,143.7
2023-01-14T09:34:03,42.805,6.029,0.02,-0.037,-0.013,103.0,103.0,102.0,13.4,1505.2,329.1,-0.7,1.8,2471.278,13.29,0.042,151.6
2023-01-14T09:37:03,42.805,6.029,0.036,-0.037,-0.011,103.0,102.0,102.0,13.4,1505.2,331.3,-0.8,1.8,2471.252,13.29,0.051,135.8
2023-01-14T09:40:03,42.805,6.029,0.04,-0.039,0.003,102.0,102.0,102.0,13.4,1505.2,339.0,-0.7,1.8,2471.263,13.29,0.055,134.3
2023-01-14T09:43:03,42.805,6.029,0.042,-0.043,0.0,103.0,102.0,101.0,13.4,1505.2,337.1,-0.8,1.8,2471.23,13.29,0.06,135.7
2023-01-14T09:46:03,42.805,6.029,0.041,-0.028,-0.021,103.0,102.0,101.0,13.4,1505.2,338.8,-0.8,1.9,2471.201,13.29,0.049,124.3
2023-01-14T09:49:03,42.805,6.029,0.023,-0.033,0.016,103.0,103.0,102.0,13.4,1505.2,337.5,-0.8,1.8,2471.29,13.29,0.04,145.1
2023-01-14T09:52:03,42.805,6.029,0.053,-0.048,-0.009,103.0,102.0,101.0,13.3,1505.2,329.6,-0.7,1.8,2471.277,13.29,0.071,132.2
2023-01-14T09:55:03,42.805,6.029,0.031,-0.045,0.007,103.0,101.0,101.0,13.3,1505.2,336.3,-0.7,1.8,2471.26,13.29,0.054,145.4